Terminal Aerodrome Forecast
Issued by NWS

Home | Current Version | Previous Version | Text Only | Print | Product List | Glossary Off
Versions: 1 2 3 4 5 6 7 8 9 10 11 12 13 14 15 16 17 18 19 20 21 22 23 24 25 26 27 28

000
FTUS45 KGGW 281400 AAA
TAFGDV
TAF AMD
KGDV 281410Z 2814/2912 VRB06KT P6SM SCT005
      TEMPO 2814/2815 BKN003
     FM281530 VRB04KT P6SM SCT100
     FM281800 31009KT P6SM VCTS BKN060CB
     FM290000 01012KT P6SM VCSH BKN070
      AMD LTD TO CLD VIS AND WIND=

USA.gov is the U.S. government's official web portal to all federal, state and local government web resources and services.